Hourly Data Report for October 07, 2014

All times are specified in Local Standard Time (LST). Add 1 hour to adjust for Daylight Saving Time where and when it is observed.

FREDERICTON
NEW BRUNSWICK

45°52'08.000" N
66°32'14.000" W
20.70 m
8101505
71700
YFC

Download Data

Hourly Data (October 2014)
Hourly Data Report for October 7, 2014
Temp Definition
°C
Dew Point Temp Definition
°C
Rel Hum Definition
%
Wind Dir Definition
10's deg

Wind Spd Definition
km/h
Visibility Definition
km
Stn Press Definition
kPa
Hmdx Definition


Wind Chill Definition


Weather Definition


TIME
00:00 Legend Double Dagger 5.5 5.5 100 LegendMM 4 12.9 102.13     LegendNANA
01:00 Legend Double Dagger 3.4 3.4 100   0 0.8 102.12     Fog
02:00 Legend Double Dagger 2.8 2.8 100   0 0.6 102.17     Fog
03:00 Legend Double Dagger 2.8 2.8 100 10 5 0.4 102.17     Fog
04:00 Legend Double Dagger 2.9 2.9 100 36 4 0.2 102.17     Fog
05:00 Legend Double Dagger 2.0 2.0 100   0 0.2 102.21     Fog
06:00 Legend Double Dagger 3.1 3.1 100   0 0.4 102.24     Fog
07:00 Legend Double Dagger 5.5 5.5 100 3 5 0.2 102.26     Fog
08:00 Legend Double Dagger 7.2 7.2 100 4 5 0.2 102.31     Fog
09:00 Legend Double Dagger 9.1 9.1 100 7 5 0.2 102.28     Fog
10:00 Legend Double Dagger 11.4 11.4 100 LegendMM 4 16.1 102.23     LegendNANA
11:00 Legend Double Dagger 16.7 8.4 58 16 22 16.1 102.15     LegendNANA
12:00 Legend Double Dagger 18.0 9.3 56 16 18 16.1 102.04     LegendNANA
13:00 Legend Double Dagger 19.0 7.9 48 17 21 16.1 101.95     LegendNANA
14:00 Legend Double Dagger 18.8 7.9 49 15 24 16.1 101.93     LegendNANA
15:00 Legend Double Dagger 17.3 7.2 51 14 13 16.1 101.87     LegendNANA
16:00 Legend Double Dagger 17.7 7.3 50 18 26 16.1 101.84     LegendNANA
17:00 Legend Double Dagger 16.1 8.9 62 18 21 16.1 101.85     LegendNANA
18:00 Legend Double Dagger 15.0 10.0 72 17 9 16.1 101.83     LegendNANA
19:00 Legend Double Dagger 14.3 8.6 68 16 18 16.1 101.81     LegendNANA
20:00 Legend Double Dagger 13.5 9.1 75 17 15 16.1 101.80     LegendNANA
21:00 Legend Double Dagger 12.9 10.5 85 18 13 16.1 101.76     LegendNANA
22:00 Legend Double Dagger 13.6 11.2 85 18 17 16.1 101.75     LegendNANA
23:00 Legend Double Dagger 13.7 11.1 84 17 18 16.1 101.71     LegendNANA

Notes on Data Quality.

Legend

  • E = Estimated
  • M = Missing
  • NA = Not Available
  • ‡ = Partner data that is not subject to review by the National Climate Archives
Date modified: